Simultaneous Nadir Overpasses (SNOs) Predictions

Prediction of SNOs between LANDSAT-8 and NOAA-19 Satellite Orbit:

Table of predicted SNOs for the next 14.0 days since TLE Epoch: 2/22/2020
Index Date (LANDSAT-8) Time (LANDSAT-8) Lat,Lon (LANDSAT-8) SZA (LANDSAT-8 ) Date (NOAA-19) Time (NOAA-19) Lat,Lon (NOAA-19) SZA (NOAA-19 ) Distance(km) Time Diff (sec)
1 02/22/2020 12:53:40 -79.51,-169.64 89.64 02/22/2020 12:52:56 -79.49,-169.52 89.66 3.15 44
2 02/22/2020 13:43:07 79.47, -2.26 90.30 02/22/2020 13:43:53 79.49, -2.27 90.34 2.45 46
3 02/24/2020 18:27:23 79.51, -73.08 89.55 02/24/2020 18:26:14 79.54, -73.18 89.56 3.66 69
4 02/24/2020 19:16:51 -79.47, 94.32 90.51 02/24/2020 19:17:17 -79.50, 94.39 90.47 3.39 26
5 02/27/2020 00:50:33 79.51,-168.88 88.72 02/27/2020 00:50:33 79.50,-168.83 88.72 1.13 0
6 02/29/2020 06:24:17 -79.51, -72.30 92.12 02/29/2020 06:23:58 -79.52, -72.26 92.11 1.11 19
7 02/29/2020 07:13:43 79.51, 95.31 87.87 02/29/2020 07:14:53 79.50, 95.22 87.87 2.00 70
8 03/02/2020 11:57:59 79.54, 24.46 87.08 03/02/2020 11:57:14 79.54, 24.30 87.06 3.29 45
9 03/02/2020 12:47:27 -79.51,-168.10 92.97 03/02/2020 12:48:18 -79.51,-168.13 92.97 0.67 51
10 03/04/2020 17:31:43 -79.54, 121.05 93.77 03/04/2020 17:30:39 -79.54, 121.01 93.78 0.86 64
11 03/04/2020 18:21:09 79.53, -71.36 86.21 03/04/2020 18:21:33 79.51, -71.37 86.20 2.93 24




NCC Satellite Simultaneous Nadir Overpasses (SNOs) Prediction Service
